SCP
5 3 0 0 0 0 0 0 1 1 2 1 1 1 0 0 0 0 0 0 0 0 0 0 0 0 0 0 0 0 0 0 0 0 0 0 0 0 0 0 0 0 0
0 0 0 0 0 -0 -0 0 1 1 2 1 1 1 0 0 0 0 0 0 0 0 0 0 0 0 0 0 0 0 0 0 0 0 0 0 0 0 0 0 0 0 0
0 0 0 0 0 0 1 1 2 2 2 1 1 1 1 0 0 0 0 0 0 0 0 0 0 0 0 0 0 0 0 0 0 0 0 0 0 0 0 0 0 0 0
0 0 0 0 0 0 1 1 1 1 1 1 1 0 0 1 0 0 0 0 0 0 0 0 0 0 0 0 0 0 0 0 0 0 0 0 0 0 0 0 0 0 0
2 1 1 1 1 1 1 1 1 1 1 1 1 0 0 0 0 0 0 0 0 0 0 0 0 0 0 0 0 0 0 0 0 0 0 0 0 0 0 0 0 0 0
0 0 1 1 1 1 1 1 1 1 1 1 1 0 0 1 0 0 0 0 0 0 0 0 0 0 0 0 0 0 0 0 0 0 0 0 0 0 0 0 0 0 0
0 0 1 1 1 1 1 1 0 1 0 0 0 0 0 0 0 0 0 0 0 0 0 1 1 1 0 0 0 0 0 0 0 0 0 0 0 0 0 0 0 0 0
0 0 0 0 0 0 0 0 0 0 0 0 0 0 0 0 0 0 0 0 0 0 0 0 0 0 0 0 0 0 0 0 0 0 0 0 0 0 0 0 0 0 0
0 0 0 0 0 0 0 0 0 0 0 0 0 0 0 0 0 0 0 0 0 0 0 0 0 0 0 0 0 0 0 0 0 0 0 0 0 0 0 0 0 0 0
0 0 0 0 0 0 0 0 0 0 0 0 0 0 0 0 0 0 0 0 0 0 0 0 0 0 0 0 0 0 0 0 0 0 0 0 0 0 0 0 0 0 0
0 0 0 0 0 0 0 0 0 0 0 0 0 0 0 0 0 0 0 0 0 0 0 0 0 0 0 0 0 0 0 0 0 0 0 0 0 0 0 0 0 0 0
0 0 0 0 0 0 0 0 0 0 0 0 0 0 0 0 0 0 0 0 0 0 0 0 0 0 0 0 0 0 0 0 0 0 0 0 0 0 0 0 0 0 0
0 0 0 0 0 0 0 0 0 0 0 0 0 0 0 0 0 0 0 -0 0 0 0 0 0 0 0 0 0 0 0 0 0 0 0 0 0 -0 0 0 0 0 0
0 0 0 0 0 0 0 0 0 0 0 0 0 0 0 0 0 0 0 0 0 0 0 0 0 0 0 0 0 0 0 0 0 0 0 0 -0 0 0 0 0 0 0
0 0 0 0 0 0 0 0 0 0 0 0 0 0 0 0 0 0 0 0 0 0 0 0 0 0 0 0 0 0 0 0 0 0 0 0 0 0 0 0 0 0 0
0 0 0 0 0 0 0 0 0 0 0 0 0 0 0 0 0 0 0 0 0 0 0 0 0 0 0 0 0 0 0 0 0 0 0 -0 0 0 0 0 0 0 0
0 0 0 0 0 0 0 0 0 0 0 0 0 0 0 0 0 0 0 0 0 0 0 0 0 -0 -0 -0 0 0 0 0 0 0 0 0 0 0 0 0 0 0 0
0 0 0 0 0 0 0 0 0 0 0 0 0 0 0 0 0 0 0 -0 0 0 0 0 -0 -0 -0 -0 0 0 0 0 0 0 0 0 0 0 0 0 0 0 0
0 0 0 0 0 0 0 0 0 0 0 0 0 0 0 0 0 0 0 -0 0 0 0 0 0 0 0 0 -0 -0 -0 0 0 0 0 0 0 0 0 0 0 0 0
0 0 0 0 0 0 0 0 0 0 0 0 0 0 -0 -0 0 0 0 0 0 0 0 0 0 0 0 0 -0 0 0 0 0 0 0 0 0 0 0 0 0 0 0
0 0 0 0 0 0 0 0 0 0 0 0 0 0 0 0 0 0 0 0 0 0 0 0 0 0 -0 -0 -0 0 0 0 0 0 0 0 0 0 0 0 0 0 0
0 0 -0 -0 -0 0 0 0 0 -0 -0 0 0 0 0 0 0 -0 0 0 0 0 0 0 0 -0 -0 -0 -0 -0 -0 -0 0 0 0 0 0 0 0 0 -0 0 0
0 0 0 0 0 0 0 -0 -0 -0 0 -0 -0 0 -0 0 -0 0 -0 -0 0 0 0 0 -0 -0 -0 -0 -0 -0 -0 0 0 0 0 0 -0 -0 -0 -0 0 0 0
0 0 0 0 0 0 -0 -0 -0 -0 0 0 -0 -0 0 0 0 0 0 0 0 0 0 -0 -0 -0 -0 -0 -0 0 0 0 0 0 0 0 0 -0 0 0 0 0 0
0 0 0 0 0 0 0 0 0 -0 -0 0 0 0 -0 -0 0 0 0 0 0 -0 -0 -0 0 0 -0 -0 -0 -0 0 0 0 0 0 0 0 0 0 0 0 0 0
0 0 0 0 0 0 0 0 0 0 0 0 0 0 0 0 0 0 0 -0 -0 -0 -0 0 0 0 -0 -0 -0 0 0 0 0 0 0 0 0 0 0 0 0 0 0
Wind_Speed_500mb
17 19 3 17 15 37 48 39 32 30 35 35 33 33 32 33 33 40 44 39 39 40 46 48 48 46 38 42 42 37 40 42 43 40 33 28 33 29 27 27 25 27 29
18 14 14 36 51 76 62 50 42 41 35 39 37 37 36 36 31 30 44 48 48 42 44 48 48 48 51 47 45 48 40 38 47 45 43 38 38 34 31 37 37 36 35
20 37 57 51 41 42 55 47 42 34 35 39 38 38 33 31 32 29 34 37 44 49 52 56 54 49 54 50 54 48 53 46 46 46 47 48 49 33 45 41 42 41 40
7 6 10 13 26 33 31 28 28 28 32 30 33 35 37 37 36 36 36 37 40 46 55 61 64 63 64 59 58 61 60 59 65 63 56 61 60 54 52 48 48 44 31
6 6 11 15 19 18 21 23 23 23 27 29 30 31 34 36 33 28 31 34 36 43 42 43 48 58 68 66 66 63 62 66 70 71 76 74 72 67 63 56 45 33 33
3 2 3 7 12 15 17 18 18 21 23 24 27 24 24 24 25 28 30 33 36 43 46 45 48 44 47 57 62 67 67 66 69 76 78 76 77 63 59 48 37 36 32
5 4 6 10 13 19 21 18 19 22 21 22 25 30 27 25 37 35 32 35 36 39 47 47 48 45 42 37 41 43 46 59 66 63 69 69 74 74 50 43 38 37 35
5 7 13 19 20 18 14 19 29 34 40 38 39 38 36 38 39 39 42 47 52 55 50 49 43 49 51 59 55 54 62 53 54 60 65 60 59 54 45 36 37 33 27
16 16 19 19 19 21 27 30 29 30 30 31 33 37 35 34 42 43 45 44 45 46 44 49 54 58 47 48 50 50 54 58 53 51 55 49 48 43 42 41 38 36 31
14 16 18 19 20 23 22 26 24 25 32 38 41 41 40 42 43 46 44 46 40 40 46 49 49 48 63 72 45 47 52 53 55 47 48 53 47 49 47 43 35 30 30
15 18 21 19 20 23 23 22 29 32 32 37 43 42 41 39 40 45 43 48 46 48 49 50 50 51 44 45 44 54 56 47 51 54 45 51 46 54 51 46 42 34 26
16 16 18 20 20 21 25 30 33 35 38 44 45 47 42 39 40 41 48 49 50 56 51 48 46 50 51 49 52 56 54 43 46 38 54 55 56 49 44 40 37 33 25
15 16 21 23 25 26 29 35 39 40 43 48 52 51 47 43 43 43 39 47 54 55 55 48 48 51 56 59 56 49 44 47 47 38 40 44 47 38 30 32 32 33 29
24 29 29 30 32 33 35 44 44 48 50 52 54 54 55 52 48 42 45 51 49 47 52 47 49 50 51 47 44 39 34 35 37 44 43 38 34 34 33 29 29 28 30
35 36 37 41 39 42 46 48 54 51 52 59 51 56 59 55 49 54 54 51 58 58 55 44 41 45 42 38 29 26 31 29 35 36 32 28 29 29 28 30 29 31 31
38 42 43 45 50 49 52 56 55 61 58 58 60 55 51 42 47 50 57 62 69 50 44 36 31 32 32 30 24 28 32 32 29 32 24 22 20 23 24 26 29 31 30
33 37 44 46 48 48 52 58 67 64 53 50 40 50 46 37 46 58 64 54 42 34 27 28 27 29 28 23 16 22 31 29 16 14 11 15 17 18 20 25 29 30 30
28 36 39 40 43 52 55 60 56 49 49 42 36 38 44 46 56 41 37 32 18 13 11 8 12 7 15 8 13 26 23 11 7 12 13 13 14 16 18 21 23 21 23
27 36 35 43 52 55 48 43 45 44 42 44 42 38 39 42 23 25 21 14 9 7 19 17 27 26 21 20 16 11 12 12 12 11 9 9 11 14 17 18 18 20 19
36 41 45 43 38 32 35 38 41 45 43 36 28 26 26 14 14 15 5 22 27 24 29 27 18 19 18 16 14 11 9 9 7 4 4 5 6 9 13 13 11 16 19
36 29 29 29 25 24 29 34 35 37 39 32 23 18 9 8 14 17 25 36 30 24 23 22 21 19 16 14 10 6 6 4 1 2 2 1 3 6 9 10 9 12 12
24 21 16 17 17 23 26 28 28 29 27 18 15 14 22 32 31 41 32 25 24 22 21 20 19 17 14 11 9 7 4 2 2 2 5 7 10 12 14 17 16 18 17
12 7 12 12 23 25 30 35 38 32 28 25 30 45 46 41 34 22 23 22 23 23 24 22 21 19 17 15 14 9 5 6 6 15 16 16 18 18 18 19 17 16 18
8 6 8 16 18 23 30 36 38 45 48 46 49 45 29 24 19 19 19 20 21 23 24 25 26 25 19 16 14 12 12 16 26 23 22 24 23 23 21 19 18 16 18
5 2 8 18 14 12 15 15 16 20 20 16 20 22 22 19 17 16 16 17 18 20 24 25 26 24 23 23 19 22 26 31 34 31 24 23 24 22 20 17 17 17 18
7 9 22 10 8 9 12 15 17 18 17 15 15 15 15 14 13 11 11 13 14 17 20 23 27 25 22 21 21 25 30 30 31 33 24 13 8 9 15 15 12 10 11
Wind_Direction_500mb
174 188 186 338 319 321 287 279 279 281 287 284 275 273 280 277 276 268 261 251 252 257 255 260 257 251 236 235 246 241 235 238 246 247 242 235 234 231 238 247 249 256 268
211 213 205 295 304 295 279 277 285 287 279 280 274 276 273 275 273 282 269 261 257 251 260 257 260 253 248 241 232 246 246 240 236 244 247 239 231 251 251 240 262 251 250
302 308 283 272 242 278 276 285 283 282 284 280 276 278 269 267 269 277 270 266 262 260 256 262 259 252 249 244 248 245 250 244 239 241 241 241 245 262 241 253 250 253 258
334 236 275 282 290 279 280 284 293 292 286 285 282 275 275 277 275 279 277 277 276 275 270 265 262 255 251 248 247 252 250 246 252 253 246 245 248 248 254 251 248 260 246
46 350 321 294 277 284 293 301 303 294 297 301 300 295 290 289 283 280 283 283 282 283 283 280 273 267 256 256 250 250 256 255 250 251 250 251 248 242 245 247 252 249 237
72 333 284 283 294 303 315 317 314 312 314 311 308 303 300 297 287 296 300 300 291 289 283 279 277 277 264 258 258 259 264 264 256 256 254 247 250 239 244 242 247 226 230
79 54 13 351 330 326 323 322 317 313 310 313 310 305 300 306 300 305 301 305 311 302 299 286 275 266 260 263 266 274 273 266 258 262 257 257 246 244 243 231 212 221 234
39 8 3 352 340 330 324 312 307 309 309 310 308 303 295 303 291 300 294 291 290 287 292 296 287 280 278 278 269 263 267 277 269 254 255 252 253 251 232 217 220 227 234
353 351 342 332 318 309 308 314 320 324 322 319 313 304 298 303 302 301 306 296 287 288 285 282 286 288 290 287 281 275 272 273 271 277 251 240 245 224 199 201 205 237 212
334 333 328 323 319 316 320 321 323 326 323 315 312 308 302 302 301 301 297 296 294 295 292 278 274 290 283 272 286 280 281 287 268 258 254 236 219 203 203 216 231 205 219
325 319 318 315 314 314 316 317 314 316 314 321 318 315 311 310 307 305 298 295 296 294 294 289 286 286 285 283 278 272 276 296 285 245 246 217 205 202 209 217 208 203 223
311 313 311 310 309 310 309 310 310 312 311 317 320 317 311 310 311 315 313 312 300 293 290 289 287 284 287 282 277 278 271 274 275 257 222 200 205 205 219 212 206 203 214
300 308 305 304 304 305 312 316 310 310 308 314 318 320 315 314 311 314 317 310 309 307 294 291 284 284 282 282 283 282 265 249 253 221 204 199 203 201 193 199 197 208 213
281 292 299 304 302 299 308 313 314 313 311 309 309 314 313 310 307 307 308 311 313 310 298 294 288 289 292 288 281 270 240 229 219 203 195 207 210 192 193 198 202 208 218
286 289 292 296 298 304 307 310 309 303 303 303 301 305 305 298 298 300 303 309 311 307 305 294 291 296 300 289 276 240 220 210 189 204 195 205 197 192 195 199 207 214 226
285 285 292 300 301 306 308 310 306 305 302 301 304 307 306 298 296 301 299 303 307 292 295 296 290 290 297 277 271 226 198 179 179 170 200 194 194 204 201 208 220 229 234
286 288 291 295 299 308 312 312 310 309 306 306 303 304 307 313 312 310 306 309 311 296 290 292 291 294 295 270 224 190 171 159 168 182 187 210 211 217 212 228 238 239 239
292 293 301 299 308 309 310 309 305 307 311 311 312 310 311 317 322 319 315 315 329 324 328 341 346 349 162 153 145 145 134 135 189 180 186 197 210 220 227 232 233 234 227
302 298 298 302 306 306 307 307 310 312 314 314 316 317 314 319 330 352 1 356 8 71 75 55 55 48 89 80 82 101 125 148 155 159 179 199 217 228 239 243 226 206 202
304 306 308 313 310 311 310 312 312 315 317 316 318 315 314 344 354 323 49 98 85 96 73 70 55 54 67 79 95 113 119 127 133 147 181 212 231 237 236 221 221 216 218
309 313 318 322 315 318 324 326 326 322 320 316 316 326 1 47 27 89 88 75 65 58 63 62 62 58 54 56 64 79 82 74 51 244 235 213 211 205 195 196 164 193 222
320 314 311 335 348 357 349 351 358 3 10 29 68 74 91 92 96 91 74 71 64 60 54 48 41 39 33 32 34 18 20 30 53 111 122 124 124 122 121 120 122 129 130
321 356 9 44 54 37 39 41 39 41 46 69 98 100 96 88 95 77 70 63 60 59 53 48 39 24 24 27 36 61 83 98 122 104 108 113 114 116 117 116 120 126 138
41 4 97 81 84 66 55 55 55 61 78 84 90 85 64 56 76 76 68 59 59 52 44 37 31 36 43 43 49 70 92 99 97 105 104 100 106 105 109 114 118 110 124
14 102 75 116 94 69 41 40 57 66 66 51 29 35 53 67 78 82 67 56 55 45 38 37 36 37 43 49 64 94 108 119 118 102 96 95 96 94 105 110 118 113 116
128 83 129 119 96 60 36 40 40 36 36 39 45 56 56 63 66 67 55 50 46 42 38 34 32 40 45 47 86 107 121 119 112 109 101 86 79 85 91 98 106 117 129
Wind_Speed_850mb
17 19 3 17 15 37 48 39 32 30 35 35 33 33 32 33 33 40 44 39 39 40 46 48 48 46 38 42 42 37 40 42 43 40 33 28 33 29 27 27 25 27 29
18 14 14 36 51 76 62 50 42 41 35 39 37 37 36 36 31 30 44 48 48 42 44 48 48 48 51 47 45 48 40 38 47 45 43 38 38 34 31 37 37 36 35
20 37 57 51 41 42 55 47 42 34 35 39 38 38 33 31 32 29 34 37 44 49 52 56 54 49 54 50 54 48 53 46 46 46 47 48 49 33 45 41 42 41 40
7 6 10 13 26 33 31 28 28 28 32 30 33 35 37 37 36 36 36 37 40 46 55 61 64 63 64 59 58 61 60 59 65 63 56 61 60 54 52 48 48 44 31
6 6 11 15 19 18 21 23 23 23 27 29 30 31 34 36 33 28 31 34 36 43 42 43 48 58 68 66 66 63 62 66 70 71 76 74 72 67 63 56 45 33 33
3 2 3 7 12 15 17 18 18 21 23 24 27 24 24 24 25 28 30 33 36 43 46 45 48 44 47 57 62 67 67 66 69 76 78 76 77 63 59 48 37 36 32
5 4 6 10 13 19 21 18 19 22 21 22 25 30 27 25 37 35 32 35 36 39 47 47 48 45 42 37 41 43 46 59 66 63 69 69 74 74 50 43 38 37 35
5 7 13 19 20 18 14 19 29 34 40 38 39 38 36 38 39 39 42 47 52 55 50 49 43 49 51 59 55 54 62 53 54 60 65 60 59 54 45 36 37 33 27
16 16 19 19 19 21 27 30 29 30 30 31 33 37 35 34 42 43 45 44 45 46 44 49 54 58 47 48 50 50 54 58 53 51 55 49 48 43 42 41 38 36 31
14 16 18 19 20 23 22 26 24 25 32 38 41 41 40 42 43 46 44 46 40 40 46 49 49 48 63 72 45 47 52 53 55 47 48 53 47 49 47 43 35 30 30
15 18 21 19 20 23 23 22 29 32 32 37 43 42 41 39 40 45 43 48 46 48 49 50 50 51 44 45 44 54 56 47 51 54 45 51 46 54 51 46 42 34 26
16 16 18 20 20 21 25 30 33 35 38 44 45 47 42 39 40 41 48 49 50 56 51 48 46 50 51 49 52 56 54 43 46 38 54 55 56 49 44 40 37 33 25
15 16 21 23 25 26 29 35 39 40 43 48 52 51 47 43 43 43 39 47 54 55 55 48 48 51 56 59 56 49 44 47 47 38 40 44 47 38 30 32 32 33 29
24 29 29 30 32 33 35 44 44 48 50 52 54 54 55 52 48 42 45 51 49 47 52 47 49 50 51 47 44 39 34 35 37 44 43 38 34 34 33 29 29 28 30
35 36 37 41 39 42 46 48 54 51 52 59 51 56 59 55 49 54 54 51 58 58 55 44 41 45 42 38 29 26 31 29 35 36 32 28 29 29 28 30 29 31 31
38 42 43 45 50 49 52 56 55 61 58 58 60 55 51 42 47 50 57 62 69 50 44 36 31 32 32 30 24 28 32 32 29 32 24 22 20 23 24 26 29 31 30
33 37 44 46 48 48 52 58 67 64 53 50 40 50 46 37 46 58 64 54 42 34 27 28 27 29 28 23 16 22 31 29 16 14 11 15 17 18 20 25 29 30 30
28 36 39 40 43 52 55 60 56 49 49 42 36 38 44 46 56 41 37 32 18 13 11 8 12 7 15 8 13 26 23 11 7 12 13 13 14 16 18 21 23 21 23
27 36 35 43 52 55 48 43 45 44 42 44 42 38 39 42 23 25 21 14 9 7 19 17 27 26 21 20 16 11 12 12 12 11 9 9 11 14 17 18 18 20 19
36 41 45 43 38 32 35 38 41 45 43 36 28 26 26 14 14 15 5 22 27 24 29 27 18 19 18 16 14 11 9 9 7 4 4 5 6 9 13 13 11 16 19
36 29 29 29 25 24 29 34 35 37 39 32 23 18 9 8 14 17 25 36 30 24 23 22 21 19 16 14 10 6 6 4 1 2 2 1 3 6 9 10 9 12 12
24 21 16 17 17 23 26 28 28 29 27 18 15 14 22 32 31 41 32 25 24 22 21 20 19 17 14 11 9 7 4 2 2 2 5 7 10 12 14 17 16 18 17
12 7 12 12 23 25 30 35 38 32 28 25 30 45 46 41 34 22 23 22 23 23 24 22 21 19 17 15 14 9 5 6 6 15 16 16 18 18 18 19 17 16 18
8 6 8 16 18 23 30 36 38 45 48 46 49 45 29 24 19 19 19 20 21 23 24 25 26 25 19 16 14 12 12 16 26 23 22 24 23 23 21 19 18 16 18
5 2 8 18 14 12 15 15 16 20 20 16 20 22 22 19 17 16 16 17 18 20 24 25 26 24 23 23 19 22 26 31 34 31 24 23 24 22 20 17 17 17 18
7 9 22 10 8 9 12 15 17 18 17 15 15 15 15 14 13 11 11 13 14 17 20 23 27 25 22 21 21 25 30 30 31 33 24 13 8 9 15 15 12 10 11
Wind_Direction_850mb
174 188 186 338 319 321 287 279 279 281 287 284 275 273 280 277 276 268 261 251 252 257 255 260 257 251 236 235 246 241 235 238 246 247 242 235 234 231 238 247 249 256 268
211 213 205 295 304 295 279 277 285 287 279 280 274 276 273 275 273 282 269 261 257 251 260 257 260 253 248 241 232 246 246 240 236 244 247 239 231 251 251 240 262 251 250
302 308 283 272 242 278 276 285 283 282 284 280 276 278 269 267 269 277 270 266 262 260 256 262 259 252 249 244 248 245 250 244 239 241 241 241 245 262 241 253 250 253 258
334 236 275 282 290 279 280 284 293 292 286 285 282 275 275 277 275 279 277 277 276 275 270 265 262 255 251 248 247 252 250 246 252 253 246 245 248 248 254 251 248 260 246
46 350 321 294 277 284 293 301 303 294 297 301 300 295 290 289 283 280 283 283 282 283 283 280 273 267 256 256 250 250 256 255 250 251 250 251 248 242 245 247 252 249 237
72 333 284 283 294 303 315 317 314 312 314 311 308 303 300 297 287 296 300 300 291 289 283 279 277 277 264 258 258 259 264 264 256 256 254 247 250 239 244 242 247 226 230
79 54 13 351 330 326 323 322 317 313 310 313 310 305 300 306 300 305 301 305 311 302 299 286 275 266 260 263 266 274 273 266 258 262 257 257 246 244 243 231 212 221 234
39 8 3 352 340 330 324 312 307 309 309 310 308 303 295 303 291 300 294 291 290 287 292 296 287 280 278 278 269 263 267 277 269 254 255 252 253 251 232 217 220 227 234
353 351 342 332 318 309 308 314 320 324 322 319 313 304 298 303 302 301 306 296 287 288 285 282 286 288 290 287 281 275 272 273 271 277 251 240 245 224 199 201 205 237 212
334 333 328 323 319 316 320 321 323 326 323 315 312 308 302 302 301 301 297 296 294 295 292 278 274 290 283 272 286 280 281 287 268 258 254 236 219 203 203 216 231 205 219
325 319 318 315 314 314 316 317 314 316 314 321 318 315 311 310 307 305 298 295 296 294 294 289 286 286 285 283 278 272 276 296 285 245 246 217 205 202 209 217 208 203 223
311 313 311 310 309 310 309 310 310 312 311 317 320 317 311 310 311 315 313 312 300 293 290 289 287 284 287 282 277 278 271 274 275 257 222 200 205 205 219 212 206 203 214
300 308 305 304 304 305 312 316 310 310 308 314 318 320 315 314 311 314 317 310 309 307 294 291 284 284 282 282 283 282 265 249 253 221 204 199 203 201 193 199 197 208 213
281 292 299 304 302 299 308 313 314 313 311 309 309 314 313 310 307 307 308 311 313 310 298 294 288 289 292 288 281 270 240 229 219 203 195 207 210 192 193 198 202 208 218
286 289 292 296 298 304 307 310 309 303 303 303 301 305 305 298 298 300 303 309 311 307 305 294 291 296 300 289 276 240 220 210 189 204 195 205 197 192 195 199 207 214 226
285 285 292 300 301 306 308 310 306 305 302 301 304 307 306 298 296 301 299 303 307 292 295 296 290 290 297 277 271 226 198 179 179 170 200 194 194 204 201 208 220 229 234
286 288 291 295 299 308 312 312 310 309 306 306 303 304 307 313 312 310 306 309 311 296 290 292 291 294 295 270 224 190 171 159 168 182 187 210 211 217 212 228 238 239 239
292 293 301 299 308 309 310 309 305 307 311 311 312 310 311 317 322 319 315 315 329 324 328 341 346 349 162 153 145 145 134 135 189 180 186 197 210 220 227 232 233 234 227
302 298 298 302 306 306 307 307 310 312 314 314 316 317 314 319 330 352 1 356 8 71 75 55 55 48 89 80 82 101 125 148 155 159 179 199 217 228 239 243 226 206 202
304 306 308 313 310 311 310 312 312 315 317 316 318 315 314 344 354 323 49 98 85 96 73 70 55 54 67 79 95 113 119 127 133 147 181 212 231 237 236 221 221 216 218
309 313 318 322 315 318 324 326 326 322 320 316 316 326 1 47 27 89 88 75 65 58 63 62 62 58 54 56 64 79 82 74 51 244 235 213 211 205 195 196 164 193 222
320 314 311 335 348 357 349 351 358 3 10 29 68 74 91 92 96 91 74 71 64 60 54 48 41 39 33 32 34 18 20 30 53 111 122 124 124 122 121 120 122 129 130
321 356 9 44 54 37 39 41 39 41 46 69 98 100 96 88 95 77 70 63 60 59 53 48 39 24 24 27 36 61 83 98 122 104 108 113 114 116 117 116 120 126 138
41 4 97 81 84 66 55 55 55 61 78 84 90 85 64 56 76 76 68 59 59 52 44 37 31 36 43 43 49 70 92 99 97 105 104 100 106 105 109 114 118 110 124
14 102 75 116 94 69 41 40 57 66 66 51 29 35 53 67 78 82 67 56 55 45 38 37 36 37 43 49 64 94 108 119 118 102 96 95 96 94 105 110 118 113 116
128 83 129 119 96 60 36 40 40 36 36 39 45 56 56 63 66 67 55 50 46 42 38 34 32 40 45 47 86 107 121 119 112 109 101 86 79 85 91 98 106 117 129